Weather History for PHLI - November, 2013

Change the Weather History Date:

Sunday, November 24, 2013

  Actual Average Record
Temperature  
Mean Temperature 71 °F 75 °F  
Max Temperature 79 °F 80 °F 85 °F (1963)
Min Temperature 63 °F 70 °F 60 °F (1958)
Degree Days  
Heating Degree Days 0 0  
Month to date heating degree days 0 0  
Since 1 July heating degree days 0 0  
Cooling Degree Days 6 10  
Month to date cooling degree days 228 266  
Year to date cooling degree days 3374 3633  
Growing Degree Days 20 (Base 50)    
Moisture  
Dew Point 61 °F    
Average Humidity 71    
Maximum Humidity 84    
Minimum Humidity 58    
Precipitation  
Precipitation 0.00 in 0.14 in 1.31 in (1967)
Month to date precipitation 3.18 3.57  
Year to date precipitation 30.74 30.96  
Snow  
Snow 0.00 in - - ()
Month to date snowfall 0.0  
Since 1 July snowfall 0.0  
Since 1 September snowfall 0.0  
Snow Depth 0.00 in    
Sea Level Pressure  
Sea Level Pressure 29.99 in    
Wind  
Wind Speed 9 mph (NE)    
Max Wind Speed 15 mph    
Max Gust Speed 20 mph    
Visibility 10 miles    
Events      
T = Trace of Precipitation, MM = Missing Value Source: NWS Daily Summary

Daily Weather History Graph

Daily Weather History Graph

Search for Another Location

Airport or City:

Trip Planner

Search our weather history database for the weather conditions in past years. The results will help you decide how hot, cold, wet, or windy it might be!

Date:

Astronomy

Nov. 24, 2013 Rise Set
Actual Time 6:55 AM HST 5:52 PM HST
Civil Twilight 6:31 AM HST 6:16 PM HST
Nautical Twilight 6:04 AM HST 6:44 PM HST
Astronomical Twilight 5:37 AM HST 7:11 PM HST
Moon No Moon Rise 12:10 PM HST (11/24)
Length of Visible Light 11h 45m
Length of Day
10h 57m
Waning Gibbous, 59% of the Moon is Illuminated
Nov 24
Waning Gibbous
Nov 25
Last Quarter
Dec 2
New
Dec 9
First Quarter
Dec 16
Full

Hourly Weather History & Observations

Time (HST) Temp. Dew Point Humidity Pressure Visibility Wind Dir Wind Speed Gust Speed Precip Events Conditions
12:53 AM 63.0 °F 57.0 °F 81% 30.03 in 10.0 mi WNW 4.6 mph - N/A   Partly Cloudy
1:53 AM 66.9 °F 57.0 °F 70% 30.01 in 10.0 mi NNW 4.6 mph - N/A   Mostly Cloudy
2:48 AM 62.6 °F 57.2 °F 82% 29.99 in 10.0 mi WNW 5.8 mph - N/A   Scattered Clouds
2:53 AM 63.0 °F 57.0 °F 81% 29.98 in 10.0 mi WNW 4.6 mph - N/A   Scattered Clouds
3:53 AM 63.0 °F 57.0 °F 81% 29.97 in 10.0 mi WNW 5.8 mph - N/A   Partly Cloudy
4:53 AM 70.0 °F 60.1 °F 71% 29.96 in 10.0 mi NE 12.7 mph - N/A   Mostly Cloudy
5:53 AM 70.0 °F 62.1 °F 76% 29.97 in 10.0 mi ENE 12.7 mph - N/A   Mostly Cloudy
6:53 AM 70.0 °F 61.0 °F 73% 29.98 in 10.0 mi ENE 9.2 mph - N/A   Partly Cloudy
7:53 AM 71.6 °F 60.8 °F 69% 30.00 in 10.0 mi East 8.1 mph - N/A   Partly Cloudy
8:53 AM 73.4 °F 61.0 °F 65% 30.03 in 10.0 mi NNE 6.9 mph - N/A   Scattered Clouds
9:53 AM 75.2 °F 63.0 °F 66% 30.05 in 10.0 mi NNE 10.4 mph - N/A   Overcast
10:53 AM 75.2 °F 63.0 °F 66% 30.04 in 10.0 mi NNE 8.1 mph - N/A   Mostly Cloudy
11:53 AM 77.0 °F 62.6 °F 61% 30.00 in 10.0 mi NE 9.2 mph - N/A   Partly Cloudy
12:53 PM 78.8 °F 62.6 °F 57% 29.99 in 10.0 mi ENE 10.4 mph - N/A   Clear
1:53 PM 78.8 °F 62.6 °F 57% 29.95 in 10.0 mi NE 9.2 mph - N/A   Clear
2:53 PM 78.8 °F 63.0 °F 58% 29.95 in 10.0 mi ENE 8.1 mph - N/A   Mostly Cloudy
3:53 PM 78.8 °F 64.9 °F 62% 29.95 in 10.0 mi NE 10.4 mph - N/A   Partly Cloudy
4:53 PM 78.8 °F 63.0 °F 58% 29.94 in 10.0 mi ENE 10.4 mph - N/A   Partly Cloudy
5:53 PM 75.2 °F 62.1 °F 64% 29.96 in 10.0 mi NE 10.4 mph - N/A   Mostly Cloudy
6:53 PM 75.2 °F 62.1 °F 64% 29.97 in 10.0 mi NE 11.5 mph - N/A   Scattered Clouds
7:53 PM 75.2 °F 62.1 °F 64% 29.99 in 10.0 mi NE 11.5 mph - N/A   Partly Cloudy
8:53 PM 75.2 °F 63.0 °F 66% 30.00 in 10.0 mi ENE 11.5 mph - N/A   Mostly Cloudy
9:53 PM 75.2 °F 63.0 °F 66% 30.01 in 10.0 mi NE 13.8 mph - N/A   Mostly Cloudy
10:53 PM 75.2 °F 63.0 °F 66% 30.01 in 10.0 mi ENE 10.4 mph - N/A   Scattered Clouds
11:53 PM 73.4 °F 62.1 °F 68% 30.00 in 10.0 mi ENE 12.7 mph - N/A   Partly Cloudy